Weather Roundup
Issued by NWS Chicago, IL

Home | Current Version | Previous Version | Graphics & Text | Print | Product List | Glossary On
Versions: 1 2 3 4 5 6 7 8 9 10 11 12 13 14 15 16 17 18 19 20 21 22 23 24 25 26 27 28 29 30 31 32 33 34 35 36 37 38 39 40 41 42 43 44 45 46 47 48 49 50
000
NZUS59 KLOT 211009
HRRLOT

CHICAGO AREA WEATHER ROUNDUP
NATIONAL WEATHER SERVICE CHICAGO/ROMEOVILLE IL
500 AM CDT MON AUG 21 2017

NOTE: "FAIR" INDICATES FEW OR NO CLOUDS BELOW 12,000 FEET WITH NO
SIGNIFICANT WEATHER AND/OR OBSTRUCTIONS TO VISIBILITY.

* THESE STATIONS ARE NOT UNDER NWS QUALITY CONTROL. THEY ALSO MAY NOT
  REPORT WEATHER SUCH AS PRECIPITATION OR FOG.

ILZ005-006-012>014-019>023-211100-
NORTHEAST ILLINOIS

CITY           SKY/WX    TMP DP  RH WIND       PRES   REMARKS
OHARE          CLOUDY    72  67  84 S6        30.03R
MIDWAY         CLOUDY    73  68  84 S8        30.03R
AURORA         CLOUDY    70  69  97 S6        30.05R
LANSING*       PTCLDY    70  66  85 S7        30.05R
JOLIET*        MOCLDY    71  69  95 CALM      30.04R
WAUKEGAN       MOCLDY    67  67 100 CALM      30.03R FOG
DUPAGE AIRPORT MOCLDY    69  69 100 S7        30.03R
WHEELING       MOCLDY    73  70  90 S7        30.04R
MORRIS*        MOCLDY    68  67  95 CALM      30.04R
LEWIS AIRPORT* CLOUDY    68  65  90 S5        30.04S
NORTHERLY ISL    N/A     72  66  81 S7          N/A
$$

WIZ051-052-058>065-066-070>072-211100-
SOUTHEAST WISCONSIN

CITY           SKY/WX    TMP DP  RH WIND       PRES   REMARKS
MILWAUKEE      CLOUDY    68  65  90 CALM      30.03R
KENOSHA*       CLOUDY    68  65  90 CALM      30.04R
RACINE*        CLOUDY    67  67 100 CALM      30.05R
WAUKESHA       CLOUDY    61  61 100 CALM      30.05S FOG
WEST BEND      CLOUDY    61  61 100 CALM      30.05S
$$

INZ001>003-010>013-019-020-211100-
NORTHWEST INDIANA

CITY           SKY/WX    TMP DP  RH WIND       PRES   REMARKS
GARY*          PTCLDY    72  68  88 SE7       30.05S
MICHIGAN CITY* NOT AVBL
RENSSELAER*    NOT AVBL
VALPARAISO     CLOUDY    71  68  90 SE6       30.07S
$$

LMZ740>746-211100-
SOUTHERN LAKE MICHIGAN

STATION/POSITION TIME  SKY/WX   TEMP WIND        PRES    VSBY
                                AIR  DIR/SP/G
                 (UTC)          (F)  (DEG/KT/KT) (MB)    (MI)
HARRISON CRIB    0940            75  180/ 17/ 18   N/A
BURNHAM HARBOR   NOT AVBL
CALUMET HARBOR   0942            73  170/  8/ 11 1016.4R
BURNS HARBOR     0940            74  180/  8/ 16 1017.6S
MICHIGAN CITY    0940            73  150/ 10/ 14   N/A
$$

ABBREVIATIONS USED IN REMARKS
   TC - TEMPERATURE IN CELSIUS
  WCI - WIND CHILL INDEX
   HX - HEAT INDEX
  VSB - VISIBILITY
$$




USA.gov is the U.S. government's official web portal to all federal, state and local government web resources and services.